Location: Aragoneses
(41.0275°N, 4.3847°W)
Time: 22:57:50
(UTC+00:00)

USA 238 - Visible Passes

Search period start: 12 March 2026 00:00
Search period end: 22 March 2026 00:00
Orbit: 883 x 1328 km, 63.4° (Epoch: 10 January)

Date Brightness Start Highest point End Pass type
(mag) Time Alt. Az. Time Alt. Az. Time Alt. Az.
12 Mar 6.3 00:20:34 12° N 00:20:34 12° N 00:21:58 10° N visible
12 Mar 6.3 02:10:40 10° N 02:13:41 13° NNE 02:16:48 10° NE visible
12 Mar 5.5 04:00:41 10° NNW 04:07:11 32° NE 04:14:08 10° E visible
12 Mar 4.1 05:51:13 10° NW 05:58:47 73° WSW 06:06:55 10° SSE visible
12 Mar 4.1 19:44:55 10° S 19:50:00 30° ESE 19:51:16 28° E visible
12 Mar 4.5 21:34:40 10° WSW 21:48:26 - NNE 21:38:58 40° W visible
12 Mar 6.2 23:35:43 13° N 23:35:43 13° N 23:37:10 10° NNE visible
13 Mar 6.4 01:25:42 10° N 01:27:41 11° N 01:29:43 10° NNE visible
13 Mar 5.9 03:15:56 10° NNW 03:21:39 24° NE 03:27:44 10° E visible
13 Mar 4.2 05:06:12 10° NNW 05:13:45 78° NE 05:21:55 10° SE visible
13 Mar 4.7 19:01:43 10° SE 19:05:28 17° ESE 19:09:24 10° ENE visible
13 Mar 3.5 20:49:24 10° SW 20:55:24 76° NW 21:02:02 10° NNE visible
13 Mar 5.7 22:43:02 10° WNW 22:47:33 20° NNW 22:52:24 10° NNE visible
14 Mar 6.4 00:40:04 10° NNW 00:41:38 11° N 00:43:15 10° NNE visible
14 Mar 6.1 02:31:12 10° NNW 02:35:57 18° NNE 02:40:58 10° ENE visible
14 Mar 4.7 04:21:17 10° NNW 04:28:36 54° NE 04:36:31 10° SE visible
14 Mar 3.3 20:04:33 10° SSW 20:10:28 68° ESE 20:16:58 10° NE visible
14 Mar 5.3 21:56:47 10° W 22:01:58 27° NW 22:07:37 10° NNE visible
14 Mar 6.3 23:53:27 10° NNW 23:55:37 11° N 23:57:51 10° N visible
15 Mar 6.3 01:46:27 10° NNW 01:50:07 14° NNE 01:53:57 10° NE visible
15 Mar 5.2 03:36:28 10° NNW 03:43:19 38° NE 03:50:42 10° ESE visible
15 Mar 4.1 05:27:12 10° NW 05:34:38 58° WSW 05:42:36 10° SSE visible
15 Mar 3.8 19:20:11 10° S 19:25:42 41° ESE 19:31:41 10° NE visible
15 Mar 4.7 21:10:54 10° WSW 21:16:34 39° NW 21:22:49 10° NNE visible
15 Mar 6.2 23:06:33 10° NW 23:09:41 14° NNW 23:12:56 10° N visible
16 Mar 6.4 01:01:38 10° N 01:04:10 12° NNE 01:06:47 10° NNE visible
16 Mar 5.6 02:51:41 10° NNW 02:57:53 28° NE 03:04:29 10° E visible
16 Mar 4.0 04:42:06 10° NW 04:49:41 85° SW 04:57:52 10° SSE visible
16 Mar 4.0 20:25:25 10° SW 20:31:21 59° NW 20:37:55 10° NNE visible
16 Mar 6.0 22:19:49 10° WNW 22:23:52 17° NNW 22:28:10 10° NNE visible
17 Mar 6.4 00:16:28 10° N 00:18:09 11° N 00:19:51 10° NNE visible
17 Mar 6.0 02:06:57 10° NNW 02:12:17 21° NNE 02:17:55 10° ENE visible
17 Mar 4.3 03:57:08 10° NNW 04:04:37 67° NE 04:12:42 10° SE visible
17 Mar 4.8 05:48:47 10° NW 05:55:13 30° WSW 06:01:59 10° SSW visible
17 Mar 3.4 19:40:19 10° SSW 19:46:18 89° SE 19:52:55 10° NE visible
17 Mar 5.6 21:33:22 10° W 21:38:12 23° NNW 21:43:24 10° NNE visible
17 Mar 6.4 23:30:22 10° NNW 23:32:06 11° N 23:33:53 10° N visible
18 Mar 6.2 01:22:13 10° NNW 01:26:31 16° NNE 01:31:02 10° ENE visible
18 Mar 4.8 03:12:16 10° NNW 03:19:24 47° NE 03:27:07 10° ESE visible
18 Mar 4.3 05:03:15 10° NW 05:10:27 46° WSW 05:18:07 10° S visible
18 Mar 3.6 18:55:39 10° SSW 19:01:27 55° ESE 19:07:46 10° NE visible
18 Mar 5.2 20:47:16 10° WSW 20:52:41 31° NW 20:58:36 10° NNE visible
18 Mar 6.3 22:43:33 10° NW 22:46:07 12° NNW 22:48:46 10° N visible
19 Mar 6.3 00:37:27 10° N 00:40:38 13° NNE 00:43:56 10° NE visible
19 Mar 5.3 02:27:28 10° NNW 02:34:03 34° NE 02:41:08 10° ESE visible
19 Mar 3.9 04:18:02 10° NW 04:25:34 69° WSW 04:33:40 10° SSE visible
19 Mar 4.5 20:01:33 10° WSW 20:07:21 46° NW 20:13:46 10° NNE visible
19 Mar 6.2 21:56:41 10° NW 22:00:13 15° NNW 22:03:55 10° NNE visible
19 Mar 6.4 23:52:32 10° N 23:54:39 11° N 23:56:49 10° NNE visible
20 Mar 5.7 01:42:42 10° NNW 01:48:32 25° NE 01:54:46 10° E visible
20 Mar 4.0 03:32:59 10° NNW 03:40:34 82° NE 03:48:45 10° SE visible
20 Mar 5.0 05:25:13 10° WNW 05:30:55 23° WSW 05:36:53 10° SSW visible
20 Mar 3.8 19:16:13 10° SW 19:22:13 71° NW 19:28:50 10° NNE visible
20 Mar 5.9 21:10:03 10° WNW 21:14:27 19° NNW 21:19:10 10° NNE visible
20 Mar 6.4 23:07:02 10° NNW 23:08:36 11° N 23:10:11 10° NNE visible
21 Mar 6.0 00:57:58 10° NNW 01:02:53 19° NNE 01:08:04 10° ENE visible
21 Mar 4.4 02:48:04 10° NNW 02:55:26 58° NE 03:03:24 10° SE visible
21 Mar 4.5 04:39:25 10° NW 04:46:14 36° WSW 04:53:27 10° S visible
21 Mar 5.5 20:23:45 10° W 20:28:52 26° NW 20:34:24 10° NNE visible
21 Mar 6.4 22:20:32 10° NNW 22:22:35 11° N 22:24:40 10° N visible
